When you browse on this site, cookies collect data to enhance your experience and personalize the content and advertising you see.
Visit our Privacy Policy to learn more. By continuing to use the site, you agree to this use of cookies and data.
EN

Hourly Weather Cybulki

Today, 18 September, Friday

Time Temperature Precipitation Wind Pressure Humidity
00:00 +7°C° 0.4 mm 5 mps 737 mmHg 93%
01:00 +7°C° 0.4 mm 5 mps 737 mmHg 93%
02:00 +7°C° 0 mm 5 mps 737 mmHg 93%
03:00 +7°C° 0.5 mm 5 mps 737 mmHg 93%
04:00 +6°C° 0.5 mm 5 mps 737 mmHg 92%
05:00 +6°C° 0.5 mm 5 mps 737 mmHg 92%
06:00 +7°C° 0.3 mm 5 mps 738 mmHg 93%
07:00 +7°C° 0.3 mm 4 mps 739 mmHg 93%
08:00 +7°C° 0 mm 4 mps 739 mmHg 92%
09:00 +7°C° 0.4 mm 5 mps 740 mmHg 92%
10:00 +7°C° 0.4 mm 5 mps 741 mmHg 92%
11:00 +7°C° 0.4 mm 6 mps 741 mmHg 93%
12:00 +7°C° 0.1 mm 6 mps 742 mmHg 92%
13:00 +7°C° 0.1 mm 6 mps 743 mmHg 92%
14:00 +7°C° 0.1 mm 6 mps 743 mmHg 91%
15:00 +7°C° 0 mm 5 mps 744 mmHg 89%
16:00 +7°C° 0 mm 5 mps 744 mmHg 88%
17:00 +7°C° 0 mm 4 mps 745 mmHg 86%
18:00 +6°C° 0 mm 4 mps 745 mmHg 87%
19:00 +7°C° 0 mm 3 mps 746 mmHg 87%
20:00 +7°C° 0 mm 2 mps 746 mmHg 88%
21:00 +5°C° 0 mm 3 mps 746 mmHg 89%
22:00 +5°C° 0 mm 3 mps 746 mmHg 89%
23:00 +4°C° 0 mm 3 mps 746 mmHg 90%

Tomorrow, 19 September, Saturday

Time Temperature Precipitation Wind Pressure Humidity
00:00 +5°C° 0 mm 3 mps 746 mmHg 87%
01:00 +7°C° 0 mm 3 mps 746 mmHg 83%
02:00 +8°C° 0 mm 3 mps 746 mmHg 80%
03:00 +8°C° 0 mm 3 mps 746 mmHg 82%
04:00 +8°C° 0 mm 3 mps 746 mmHg 85%
05:00 +8°C° 0 mm 3 mps 745 mmHg 87%
06:00 +7°C° 0 mm 4 mps 746 mmHg 85%
07:00 +8°C° 0 mm 4 mps 746 mmHg 84%
08:00 +10°C° 0 mm 4 mps 746 mmHg 82%
09:00 +11°C° 0 mm 4 mps 746 mmHg 79%
10:00 +12°C° 0 mm 4 mps 746 mmHg 75%
11:00 +12°C° 0 mm 4 mps 746 mmHg 72%
12:00 +13°C° 0 mm 4 mps 746 mmHg 71%
13:00 +13°C° 0 mm 4 mps 746 mmHg 69%
14:00 +13°C° 0 mm 4 mps 746 mmHg 68%
15:00 +13°C° 0 mm 4 mps 746 mmHg 69%
16:00 +12°C° 0 mm 3 mps 746 mmHg 70%
17:00 +12°C° 0 mm 3 mps 746 mmHg 70%
18:00 +11°C° 0 mm 3 mps 747 mmHg 74%
19:00 +9°C° 0 mm 3 mps 747 mmHg 77%
20:00 +8°C° 0 mm 3 mps 747 mmHg 81%
21:00 +8°C° 0 mm 3 mps 747 mmHg 81%
22:00 +8°C° 0 mm 2 mps 748 mmHg 81%
23:00 +8°C° 0 mm 2 mps 748 mmHg 81%

Day after tomorrow, 20 September, Sunday

Time Temperature Precipitation Wind Pressure Humidity
00:00 +7°C° 0 mm 2 mps 748 mmHg 85%
01:00 +6°C° 0 mm 2 mps 748 mmHg 88%
02:00 +5°C° 0 mm 2 mps 748 mmHg 91%
03:00 +5°C° 0 mm 2 mps 749 mmHg 93%
04:00 +5°C° 0 mm 2 mps 749 mmHg 94%
05:00 +4°C° 0 mm 2 mps 749 mmHg 95%
06:00 +6°C° 0 mm 2 mps 749 mmHg 90%
07:00 +7°C° 0 mm 3 mps 750 mmHg 85%
08:00 +8°C° 0 mm 3 mps 750 mmHg 80%
09:00 +9°C° 0 mm 3 mps 750 mmHg 73%
10:00 +11°C° 0 mm 3 mps 750 mmHg 67%
11:00 +12°C° 0 mm 3 mps 750 mmHg 60%
12:00 +13°C° 0 mm 3 mps 750 mmHg 59%
13:00 +13°C° 0 mm 3 mps 750 mmHg 58%
14:00 +13°C° 0 mm 3 mps 750 mmHg 58%
15:00 +13°C° 0 mm 3 mps 750 mmHg 62%
16:00 +13°C° 0 mm 2 mps 750 mmHg 67%
17:00 +12°C° 0 mm 2 mps 750 mmHg 71%
18:00 +10°C° 0 mm 2 mps 750 mmHg 77%
19:00 +8°C° 0 mm 2 mps 750 mmHg 83%
20:00 +7°C° 0 mm 2 mps 750 mmHg 88%
21:00 +7°C° 0 mm 2 mps 750 mmHg 89%
22:00 +6°C° 0 mm 2 mps 750 mmHg 91%
23:00 +6°C° 0 mm 2 mps 750 mmHg 92%

21 September, Monday

Time Temperature Precipitation Wind Pressure Humidity
00:00 +6°C° 0 mm 2 mps 750 mmHg 92%
01:00 +6°C° 0 mm 2 mps 750 mmHg 93%
02:00 +6°C° 0 mm 2 mps 749 mmHg 93%
03:00 +6°C° 0 mm 2 mps 749 mmHg 92%
04:00 +6°C° 0 mm 2 mps 749 mmHg 92%
05:00 +5°C° 0 mm 3 mps 749 mmHg 92%
06:00 +7°C° 0 mm 3 mps 749 mmHg 88%
07:00 +8°C° 0 mm 3 mps 749 mmHg 84%
08:00 +9°C° 0 mm 3 mps 749 mmHg 80%
09:00 +10°C° 0 mm 3 mps 749 mmHg 76%
10:00 +12°C° 0 mm 3 mps 748 mmHg 72%
11:00 +14°C° 0 mm 4 mps 748 mmHg 68%
12:00 +14°C° 0 mm 4 mps 748 mmHg 68%
13:00 +15°C° 0 mm 4 mps 748 mmHg 69%
14:00 +17°C° 0 mm 4 mps 748 mmHg 69%
15:00 +16°C° 0 mm 3 mps 748 mmHg 73%
16:00 +14°C° 0 mm 3 mps 748 mmHg 78%
17:00 +15°C° 0 mm 2 mps 747 mmHg 82%
18:00 +14°C° 0 mm 2 mps 747 mmHg 86%
19:00 +13°C° 0 mm 2 mps 748 mmHg 91%
20:00 +10°C° 0 mm 2 mps 748 mmHg 96%
21:00 +10°C° 0 mm 2 mps 748 mmHg 96%
22:00 +10°C° 0 mm 2 mps 748 mmHg 96%
23:00 +10°C° 0 mm 2 mps 748 mmHg 97%

22 September, Tuesday

Time Temperature Precipitation Wind Pressure Humidity
00:00 +9°C° 0 mm 2 mps 748 mmHg 97%
01:00 +9°C° 0 mm 2 mps 748 mmHg 97%
02:00 +9°C° 0 mm 2 mps 747 mmHg 97%
03:00 +9°C° 0 mm 2 mps 747 mmHg 97%
04:00 +9°C° 0 mm 2 mps 747 mmHg 97%
05:00 +8°C° 0 mm 2 mps 747 mmHg 96%
06:00 +9°C° 0 mm 3 mps 747 mmHg 93%
07:00 +10°C° 0 mm 3 mps 747 mmHg 90%
08:00 +11°C° 0 mm 3 mps 747 mmHg 86%
09:00 +13°C° 0 mm 3 mps 747 mmHg 79%
10:00 +15°C° 0 mm 4 mps 747 mmHg 72%
11:00 +18°C° 0 mm 4 mps 747 mmHg 65%
12:00 +19°C° 0 mm 4 mps 747 mmHg 63%
13:00 +19°C° 0 mm 4 mps 747 mmHg 61%
14:00 +20°C° 0 mm 4 mps 746 mmHg 59%
15:00 +19°C° 0 mm 4 mps 746 mmHg 64%
16:00 +18°C° 0 mm 3 mps 746 mmHg 70%
17:00 +17°C° 0 mm 3 mps 745 mmHg 75%
18:00 +16°C° 0 mm 3 mps 745 mmHg 79%
19:00 +14°C° 0 mm 3 mps 745 mmHg 84%
20:00 +12°C° 0 mm 3 mps 745 mmHg 89%
21:00 +12°C° 0 mm 3 mps 745 mmHg 90%
22:00 +12°C° 0 mm 3 mps 745 mmHg 91%
23:00 +11°C° 0 mm 3 mps 745 mmHg 92%

23 September, Wednesday

Time Temperature Precipitation Wind Pressure Humidity
00:00 +11°C° 0 mm 3 mps 745 mmHg 92%
01:00 +11°C° 0 mm 3 mps 745 mmHg 92%
02:00 +11°C° 0 mm 3 mps 744 mmHg 92%
03:00 +11°C° 0 mm 3 mps 744 mmHg 91%
04:00 +11°C° 0 mm 3 mps 744 mmHg 90%
05:00 +11°C° 0 mm 3 mps 744 mmHg 89%
06:00 +12°C° 0 mm 3 mps 744 mmHg 85%
07:00 +13°C° 0 mm 4 mps 744 mmHg 80%
08:00 +14°C° 0 mm 4 mps 744 mmHg 76%
09:00 +15°C° 0 mm 4 mps 744 mmHg 70%
10:00 +18°C° 0 mm 4 mps 744 mmHg 65%
11:00 +19°C° 0 mm 5 mps 744 mmHg 59%
12:00 +20°C° 0 mm 5 mps 743 mmHg 57%
13:00 +21°C° 0 mm 5 mps 743 mmHg 54%
14:00 +21°C° 0 mm 5 mps 743 mmHg 52%
15:00 +20°C° 0 mm 5 mps 743 mmHg 56%
16:00 +19°C° 0 mm 4 mps 743 mmHg 59%
17:00 +18°C° 0 mm 4 mps 743 mmHg 63%
18:00 +17°C° 0 mm 4 mps 743 mmHg 63%
19:00 +17°C° 0 mm 4 mps 743 mmHg 64%
20:00 +15°C° 0 mm 4 mps 743 mmHg 64%
21:00 +14°C° 0 mm 4 mps 743 mmHg 65%
22:00 +14°C° 0 mm 3 mps 743 mmHg 66%
23:00 +13°C° 0 mm 3 mps 743 mmHg 67%
Show more